STARLINK-35973 (66632 NORAD) Tracking and Keplerian Element Data

This shows tracking and keplerian element data for the satellite.

Feedback or suggestion? Click here.




ElementValue
Catalog66632
NameSTARLINK-35973
Epoch Orbit525
Epoch Day353.78116063
Epoch Year2025
RAAN153.8489
Inclination53.1599
Eccentricity9.83E-05
Argument of Perigee75.4861
Mean Anonmoly284.6253
Mean Motion15.39637359
Decay Rate0.00032612
L11 66632U 25271R 25353.78116063 .00032612 00000+0 82132-3 0 9992
L22 66632 53.1599 153.8489 0000983 75.4861 284.6253 15.39637359 5259



Live tracking and technical data element details for STARLINK-35973 (NORAD 66632). STARLINK-35973 can be tracked NOW for your location showing map with azimuth and elevation plus other details from your city location.







IsCatalogInMostPopularTable: catalog: 66632, numindb: 8
Update: records affected: 1



GetName: 66632 STARLINK-35973

Hit Count: updated at: Sat, 07 Feb 2026 08:43:04 GMT